Location: Spruce Knob
(38.6995°N, 79.5330°W)
Time: 10:21:06
(UTC-04:00)

PCSat - Visible Passes

Search period start: 26 May 2024 00:00
Search period end: 05 June 2024 00:00
Orbit: 783 x 792 km, 67.1° (Epoch: 26 May)

Date Brightness Start Highest point End Pass type
(mag) Time Alt. Az. Time Alt. Az. Time Alt. Az.
26 May 9.6 21:20:29 10° NNW 21:25:56 86° WSW 21:31:20 10° SSE visible
27 May 11.9 22:34:01 10° WNW 22:36:57 15° WSW 22:39:52 10° SW visible
28 May 11.6 22:01:28 10° WNW 22:05:30 22° WSW 22:09:30 10° SSW visible
29 May 11.2 21:29:18 10° NW 21:34:00 31° WSW 21:38:40 10° S visible
30 May 10.7 20:57:21 10° NW 21:02:28 44° WSW 21:07:32 10° S visible
01 Jun 12.5 21:41:21 10° W 21:41:42 10° W 21:42:04 10° WSW visible
02 Jun 12.1 21:07:12 10° WNW 21:10:17 15° WSW 21:13:21 10° SW visible
